De Queen, AR

3:30 AM CDT on October 23, 2019 (GMT -0500)
Helms Sevier County

Weather History for KDEQ - August, 2019

Change the Weather History Date:

Tuesday, August 13, 2019

  Actual Average Record
Temperature  
Mean Temperature 87 °F 82 °F  
Max Temperature 100 °F 94 °F 106 °F (1980)
Min Temperature 73 °F 69 °F 50 °F (1967)
Degree Days  
Heating Degree Days 0 0  
Month to date heating degree days 0 0  
Since 1 June heating degree days 0 0  
Since 1 July heating degree days 0 0  
Cooling Degree Days 22 17  
Month to date cooling degree days 251 217  
Year to date cooling degree days 1388 1309  
Since 1 June cooling degree days 1115 1092  
Growing Degree Days 37 (Base 50)    
Moisture  
Dew Point 76 °F    
Average Humidity 88    
Maximum Humidity 100    
Minimum Humidity 44    
Precipitation  
Precipitation 0.27 in 0.06 in 3.35 in (1988)
Month to date precipitation 0.35 0.91  
Year to date precipitation 37.43 30.33  
Snow  
Snow 0.00 in - - ()
Month to date snowfall 0.0  
Since 1 June snowfall 0.0  
Since 1 July snowfall 0.0  
Snow Depth 0.00 in    
Sea Level Pressure  
Sea Level Pressure 29.88 in    
Wind  
Wind Speed 2 mph ()    
Max Wind Speed 24 mph    
Max Gust Speed 33 mph    
Visibility 5.3 miles    
Events Fog , Rain , Thunderstorm    
T = Trace of Precipitation, MM = Missing Value Source: Averaged Metar Reports

Daily Weather History Graph

Daily Weather History Graph

Search for Another Location

Airport or City:

Astronomy

Aug. 13, 2019 Rise Set
Actual Time 6:37 AM CDT 8:06 PM CDT
Civil Twilight 6:10 AM CDT 8:33 PM CDT
Nautical Twilight 5:39 AM CDT 9:05 PM CDT
Astronomical Twilight 5:05 AM CDT 9:38 PM CDT
Moon 7:17 PM CDT (8/13) 4:46 AM CDT (8/13)
Length of Visible Light 14h 22m
Length of Day
13h 29m
Waxing Gibbous, 97% of the Moon is Illuminated
Aug 13
Waxing Gibbous
Aug 15
Full
Aug 23
Last Quarter
Aug 30
New
Sep 5
First Quarter

Hourly Weather History & Observations

Time (CDT) Temp. Heat Index Dew Point Humidity Pressure Visibility Wind Dir Wind Speed Gust Speed Precip Events Conditions
12:53 AM 78.1 °F - 78.1 °F 100% 29.85 in 5.0 mi Calm Calm - N/A   Clear
1:53 AM 77.0 °F - 77.0 °F 100% 29.84 in 7.0 mi Calm Calm - N/A   Clear
2:35 AM 75.9 °F - 75.9 °F 100% 29.86 in 1.5 mi Calm Calm - N/A   Clear
2:38 AM 75.9 °F - 75.9 °F 100% 29.86 in 1.0 mi Calm Calm - N/A   Mist
2:45 AM 75.9 °F - 75.9 °F 100% 29.86 in 2.0 mi Calm Calm - N/A   Clear
2:53 AM 75.9 °F - 75.9 °F 100% 29.84 in 4.0 mi Calm Calm - N/A   Clear
3:03 AM 75.9 °F - 75.9 °F 100% 29.86 in 2.0 mi Calm Calm - N/A   Clear
3:14 AM 75.9 °F - 75.9 °F 100% 29.86 in 5.0 mi Calm Calm - N/A   Clear
3:45 AM 75.0 °F - 75.0 °F 100% 29.86 in 2.0 mi Calm Calm - N/A   Clear
3:53 AM 75.9 °F - 75.9 °F 100% 29.84 in 1.5 mi Calm Calm - N/A   Clear
4:16 AM 75.0 °F - 75.0 °F 100% 29.85 in 3.0 mi Calm Calm - N/A   Clear
4:24 AM 75.0 °F - 75.0 °F 100% 29.85 in 2.5 mi Calm Calm - N/A   Clear
4:35 AM 75.0 °F - 75.0 °F 100% 29.86 in 1.0 mi Calm Calm - N/A   Clear
4:53 AM 73.9 °F - 73.9 °F 100% 29.85 in 1.0 mi Calm Calm - N/A   Clear
5:05 AM 75.0 °F - 75.0 °F 100% 29.87 in 2.5 mi Calm Calm - N/A   Clear
5:23 AM 75.0 °F - 75.0 °F 100% 29.87 in 3.0 mi Calm Calm - N/A   Clear
5:34 AM 73.9 °F - 73.9 °F 100% 29.88 in 1.8 mi Calm Calm - N/A   Clear
5:53 AM 75.0 °F - 75.0 °F 100% 29.87 in 3.0 mi Calm Calm - N/A   Clear
6:09 AM 73.9 °F - 73.9 °F 100% 29.90 in 1.8 mi Calm Calm - N/A   Clear
6:41 AM 75.0 °F - 75.0 °F 100% 29.91 in 3.0 mi Calm Calm - N/A   Clear
6:50 AM 73.4 °F - 73.4 °F 100% 29.91 in 1.2 mi Calm Calm - N/A   Clear
6:51 AM 73.9 °F - 73.9 °F 100% 29.89 in 1.0 mi Calm Calm - N/A   Clear
6:59 AM 73.9 °F - 73.9 °F 100% 29.91 in 0.5 mi Calm Calm - N/A Fog Fog
7:23 AM 75.0 °F - 75.0 °F 100% 29.92 in 2.5 mi Calm Calm - N/A   Clear
7:35 AM 77.0 °F - 77.0 °F 100% 29.92 in 3.0 mi Calm Calm - N/A   Clear
7:53 AM 78.1 °F - 77.0 °F 96% 29.90 in 6.0 mi Calm Calm - N/A   Clear
8:53 AM 84.0 °F 94.8 °F 78.1 °F 82% 29.91 in 10.0 mi Calm Calm - N/A   Clear
9:53 AM 88.0 °F 101.3 °F 78.1 °F 72% 29.90 in 10.0 mi West 4.6 mph - N/A   Clear
10:53 AM 91.0 °F 106.2 °F 78.1 °F 66% 29.90 in 10.0 mi Variable 6.9 mph - N/A   Clear
11:53 AM 95.0 °F 109.7 °F 77.0 °F 56% 29.91 in 10.0 mi SW 6.9 mph - N/A   Clear
12:53 PM 97.0 °F 109.3 °F 75.0 °F 49% 29.89 in 10.0 mi SSW 5.8 mph - N/A   Clear
1:53 PM 98.1 °F 109.5 °F 73.9 °F 46% 29.87 in 10.0 mi Calm Calm - N/A   Clear
2:53 PM 98.1 °F 108.0 °F 73.0 °F 44% 29.85 in 10.0 mi Calm Calm - N/A   Partly Cloudy
3:36 PM 88.0 °F 95.6 °F 73.0 °F 61% 29.89 in 10.0 mi NE 9.2 mph - N/A Thunderstorm Overcast
3:44 PM 87.1 °F 94.5 °F 73.0 °F 63% 29.90 in 7.0 mi NNE 10.4 mph - 0.02 in Thunderstorm Thunderstorm
3:48 PM 84.2 °F 90.9 °F 73.4 °F 70% 29.91 in 1.8 mi ENE 17.3 mph - 0.14 in Rain , Thunderstorm Heavy Thunderstorms and Rain
3:53 PM 80.1 °F 84.5 °F 73.9 °F 81% 29.90 in 1.0 mi East 24.2 mph 33.4 mph 0.23 in Rain , Thunderstorm Heavy Thunderstorms and Rain
3:59 PM 80.1 °F 84.5 °F 73.9 °F 81% 29.90 in 1.2 mi ESE 16.1 mph 33.4 mph 0.03 in Rain , Thunderstorm Heavy Thunderstorms and Rain
4:04 PM 80.1 °F 85.1 °F 75.0 °F 85% 29.89 in 3.0 mi ESE 17.3 mph 24.2 mph 0.04 in Rain , Thunderstorm Thunderstorms and Rain
4:11 PM 79.0 °F - 75.0 °F 88% 29.88 in 6.0 mi East 9.2 mph 24.2 mph 0.04 in Rain , Thunderstorm Light Thunderstorms and Rain
4:29 PM 82.0 °F 89.4 °F 75.9 °F 82% 29.90 in 10.0 mi NNW 8.1 mph - 0.04 in Thunderstorm Mostly Cloudy
4:53 PM 87.1 °F 101.5 °F 79.0 °F 77% 29.88 in 10.0 mi ENE 5.8 mph - 0.04 in   Clear
5:53 PM 90.0 °F 107.9 °F 80.1 °F 73% 29.86 in 10.0 mi ENE 3.5 mph - N/A   Clear
6:53 PM 90.0 °F 107.9 °F 80.1 °F 73% 29.86 in 10.0 mi Calm Calm - N/A   Clear
7:53 PM 86.0 °F 102.5 °F 81.0 °F 85% 29.86 in 10.0 mi Calm Calm - N/A   Clear
8:53 PM 82.9 °F 93.8 °F 79.0 °F 88% 29.86 in 10.0 mi East 3.5 mph - N/A   Clear
9:53 PM 80.1 °F 86.7 °F 79.0 °F 96% 29.89 in 10.0 mi Calm Calm - N/A   Clear
10:53 PM 79.0 °F - 79.0 °F 100% 29.91 in 10.0 mi Calm Calm - N/A   Clear
11:53 PM 78.1 °F - 78.1 °F 100% 29.92 in 10.0 mi Calm Calm - N/A   Clear